"read_dt","SO2 (ppb)","flags","PMT voltage (V)","lamp voltage (V)","lamp intensity (Hz)","internal temp (C)","react chamber temp (C)","sample flow (l/min)","pres (mmHg)","SO2 bkg (ppb)","SO2 coefficient"
2018-06-12 00:00:00,-1.997E-01,4C000000*,-702.6,976.725,90,32.0,44.9,0.411,741.1,2.1,1.050*
2018-06-12 00:01:00,-2.707E-01,4C000000*,-702.3,976.320,89,32.0,45.2,0.410,741.1,2.1,1.050*
2018-06-12 00:02:00,-3.249E-01,4C000000*,-702.6,977.533,89,32.0,44.9,0.411,741.1,2.1,1.050*
2018-06-12 00:03:00,-2.435E-01,4C000000*,-702.6,976.725,89,32.0,45.2,0.410,740.8,2.1,1.050*
2018-06-12 00:04:00,-2.992E-01,4C000000*,-702.3,976.320,88,32.0,45.0,0.410,741.1,2.1,1.050*
2018-06-12 00:05:00,-3.469E-01,4C000000*,-702.6,975.916,89,32.0,45.0,0.410,741.1,2.1,1.050*
2018-06-12 00:06:00,-3.731E-01,4C000000*,-702.3,974.299,90,32.0,45.0,0.410,741.1,2.1,1.050*
2018-06-12 00:07:00,-3.193E-01,4C000000*,-702.3,975.512,89,32.0,44.9,0.410,741.1,2.1,1.050*
2018-06-12 00:08:00,-3.054E-01,4C000000*,-703.0,976.725,90,32.0,45.2,0.410,741.1,2.1,1.050*
2018-06-12 00:09:00,-3.097E-01,4C000000*,-702.3,975.108,91,32.0,44.8,0.411,741.1,2.1,1.050*
2018-06-12 00:10:00,-3.779E-01,4C000000*,-702.3,974.703,90,32.0,45.2,0.410,741.1,2.1,1.050*
2018-06-12 00:11:00,-2.537E-01,4C000000*,-702.3,977.129,89,32.0,45.0,0.411,741.1,2.1,1.050*
2018-06-12 00:12:00,-2.343E-01,4C000000*,-702.6,976.320,90,32.0,45.0,0.411,741.1,2.1,1.050*
2018-06-12 00:13:00,-3.542E-01,4C000000*,-702.3,975.512,90,32.0,45.0,0.410,741.1,2.1,1.050*
2018-06-12 00:14:00,-2.748E-01,4C000000*,-702.6,974.703,90,32.1,44.9,0.410,741.1,2.1,1.050*
2018-06-12 00:15:00,-3.623E-01,4C000000*,-703.0,975.916,87,32.0,45.2,0.411,741.1,2.1,1.050*
2018-06-12 00:16:00,-3.465E-01,4C000000*,-702.3,975.512,90,32.0,44.9,0.410,741.1,2.1,1.050*
2018-06-12 00:17:00,-3.226E-01,4C000000*,-702.6,975.916,90,32.0,45.2,0.410,741.1,2.1,1.050*
2018-06-12 00:18:00,-2.714E-01,4C000000*,-702.6,976.320,90,32.0,45.0,0.410,741.1,2.1,1.050*
2018-06-12 00:19:00,-2.707E-01,4C000000*,-703.0,974.703,89,31.9,45.0,0.410,741.1,2.1,1.050*
2018-06-12 00:20:00,-2.633E-01,4C000000*,-702.6,976.320,91,32.0,45.1,0.410,741.1,2.1,1.050*
2018-06-12 00:21:00,-3.354E-01,4C000000*,-702.6,975.916,91,32.0,44.9,0.411,741.1,2.1,1.050*
2018-06-12 00:22:00,-2.717E-01,4C000000*,-703.0,978.342,91,32.0,45.2,0.411,740.8,2.1,1.050*
2018-06-12 00:23:00,-3.035E-01,4C000000*,-702.3,976.320,90,32.0,44.8,0.410,741.1,2.1,1.050*
2018-06-12 00:24:00,-2.173E-01,4C000000*,-703.0,975.916,89,32.0,45.1,0.410,741.1,2.1,1.050*
2018-06-12 00:25:00,-3.047E-01,4C000000*,-702.6,976.725,90,32.0,44.9,0.410,741.1,2.1,1.050*
2018-06-12 00:26:00,-2.405E-01,4C000000*,-702.6,976.320,89,32.0,45.1,0.411,741.1,2.1,1.050*
2018-06-12 00:27:00,-2.571E-01,4C000000*,-702.3,975.512,90,32.0,45.1,0.411,741.1,2.1,1.050*
2018-06-12 00:28:00,-3.156E-01,4C000000*,-702.6,977.129,90,32.0,45.0,0.410,741.1,2.1,1.050*
2018-06-12 00:29:00,-3.350E-01,4C000000*,-702.6,974.703,89,32.0,45.0,0.410,741.1,2.1,1.050*
2018-06-12 00:30:00,-3.047E-01,4C000000*,-702.6,975.512,90,32.0,45.0,0.410,741.1,2.1,1.050*
2018-06-12 00:31:00,-2.878E-01,4C000000*,-702.3,975.512,90,32.0,45.0,0.411,741.1,2.1,1.050*
2018-06-12 00:32:00,-3.244E-01,4C000000*,-702.6,975.916,90,32.0,44.9,0.411,741.1,2.1,1.050*
2018-06-12 00:33:00,-2.714E-01,4C000000*,-702.6,975.916,90,31.9,45.3,0.410,741.1,2.1,1.050*
2018-06-12 00:34:00,-3.184E-01,4C000000*,-702.6,975.916,91,32.0,44.9,0.410,740.8,2.1,1.050*
2018-06-12 00:35:00,-2.667E-01,4C000000*,-702.6,975.512,90,32.0,45.2,0.411,740.8,2.1,1.050*
2018-06-12 00:36:00,-3.844E-01,4C000000*,-702.3,974.703,89,32.0,44.9,0.410,741.1,2.1,1.050*
2018-06-12 00:37:00,-2.659E-01,4C000000*,-703.0,976.320,89,32.0,45.1,0.411,741.1,2.1,1.050*
2018-06-12 00:38:00,-3.486E-01,4C000000*,-702.3,976.725,91,32.0,45.1,0.410,740.8,2.1,1.050*
2018-06-12 00:39:00,-3.046E-01,4C000000*,-702.3,977.129,89,32.0,44.9,0.410,741.1,2.1,1.050*
2018-06-12 00:40:00,-3.539E-01,4C000000*,-703.0,976.320,90,32.0,45.2,0.410,741.1,2.1,1.050*
2018-06-12 00:41:00,-3.256E-01,4C000000*,-702.6,977.129,90,31.9,44.9,0.410,741.1,2.1,1.050*
2018-06-12 00:42:00,-3.142E-01,4C000000*,-702.6,976.320,91,32.0,45.1,0.410,741.1,2.1,1.050*
2018-06-12 00:43:00,-3.106E-01,4C000000*,-702.6,975.108,90,32.1,44.9,0.410,741.1,2.1,1.050*
2018-06-12 00:44:00,-3.012E-01,4C000000*,-702.3,975.916,90,32.0,44.9,0.410,741.4,2.1,1.050*
2018-06-12 00:45:00,-3.059E-01,4C000000*,-702.6,975.512,91,31.9,45.2,0.411,741.1,2.1,1.050*
2018-06-12 00:46:00,-2.909E-01,4C000000*,-702.6,975.916,90,32.0,44.8,0.411,741.1,2.1,1.050*
2018-06-12 00:47:00,-2.803E-01,4C000000*,-703.0,977.533,89,32.0,45.2,0.410,741.1,2.1,1.050*
2018-06-12 00:48:00,-2.467E-01,4C000000*,-702.6,977.129,88,31.9,44.9,0.411,741.1,2.1,1.050*
2018-06-12 00:49:00,-3.299E-01,4C000000*,-702.6,977.533,90,32.0,45.1,0.410,741.1,2.1,1.050*
2018-06-12 00:50:00,-2.952E-01,4C000000*,-702.3,977.533,90,32.0,45.1,0.411,741.1,2.1,1.050*
2018-06-12 00:51:00,-3.681E-01,4C000000*,-702.6,975.916,88,32.0,44.9,0.410,741.1,2.1,1.050*
2018-06-12 00:52:00,-2.612E-01,4C000000*,-702.3,975.512,90,32.0,45.2,0.410,741.1,2.1,1.050*
2018-06-12 00:53:00,-3.505E-01,4C000000*,-702.6,978.746,88,32.1,44.9,0.411,741.1,2.1,1.050*
2018-06-12 00:54:00,-3.039E-01,4C000000*,-703.0,975.512,89,32.0,45.1,0.410,741.4,2.1,1.050*
2018-06-12 00:55:00,-3.207E-01,4C000000*,-702.3,975.512,90,32.0,44.9,0.410,741.1,2.1,1.050*
2018-06-12 00:56:00,-3.245E-01,4C000000*,-702.6,976.725,91,32.0,45.0,0.410,741.1,2.1,1.050*
2018-06-12 00:57:00,-2.902E-01,4C000000*,-702.3,975.512,89,32.0,45.1,0.410,741.1,2.1,1.050*
2018-06-12 00:58:00,-2.838E-01,4C000000*,-702.6,977.129,89,32.1,44.9,0.410,741.1,2.1,1.050*
2018-06-12 00:59:00,-2.454E-01,4C000000*,-702.6,974.703,90,32.0,45.1,0.411,741.1,2.1,1.050*
2018-06-12 01:00:00,-3.604E-01,4C000000*,-702.6,977.533,90,32.0,44.8,0.411,741.1,2.1,1.050*
2018-06-12 01:01:00,-3.367E-01,4C000000*,-702.3,975.916,90,32.0,45.2,0.410,741.1,2.1,1.050*
2018-06-12 01:02:00,-2.663E-01,4C000000*,-702.6,975.108,88,32.0,44.9,0.411,741.1,2.1,1.050*
2018-06-12 01:03:00,-3.240E-01,4C000000*,-702.3,976.320,91,32.0,45.2,0.410,741.1,2.1,1.050*
2018-06-12 01:04:00,-3.450E-01,4C000000*,-702.3,976.725,90,32.0,45.0,0.411,741.1,2.1,1.050*
2018-06-12 01:05:00,-3.795E-01,4C000000*,-702.6,975.916,91,32.0,45.0,0.411,741.1,2.1,1.050*
2018-06-12 01:06:00,-3.314E-01,4C000000*,-702.6,975.916,91,32.0,45.0,0.410,741.1,2.1,1.050*
2018-06-12 01:07:00,-3.623E-01,4C000000*,-702.6,976.725,90,32.0,44.9,0.411,741.1,2.1,1.050*
2018-06-12 01:08:00,-3.280E-01,4C000000*,-702.3,976.725,90,32.1,45.2,0.410,741.1,2.1,1.050*
2018-06-12 01:09:00,-3.625E-01,4C000000*,-702.6,976.725,89,32.1,44.9,0.410,741.1,2.1,1.050*
2018-06-12 01:10:00,-3.329E-01,4C000000*,-702.6,975.512,90,32.0,45.2,0.411,741.1,2.1,1.050*
2018-06-12 01:11:00,-2.969E-01,4C000000*,-702.6,976.320,90,32.0,45.0,0.410,740.8,2.1,1.050*
2018-06-12 01:12:00,-2.314E-01,4C000000*,-702.3,977.938,90,32.1,45.0,0.411,741.1,2.1,1.050*
2018-06-12 01:13:00,-4.034E-01,4C000000*,-702.3,976.725,90,32.1,45.0,0.411,741.1,2.1,1.050*
2018-06-12 01:14:00,-2.910E-01,4C000000*,-702.6,977.533,90,32.0,45.1,0.411,741.1,2.1,1.050*
2018-06-12 01:15:00,-3.160E-01,4C000000*,-702.6,975.916,90,32.0,45.1,0.411,741.1,2.1,1.050*
2018-06-12 01:16:00,-3.113E-01,4C000000*,-702.6,976.320,90,32.1,44.9,0.411,741.4,2.1,1.050*
2018-06-12 01:17:00,-3.407E-01,4C000000*,-702.6,977.533,91,32.0,45.2,0.410,741.1,2.1,1.050*
2018-06-12 01:18:00,-2.431E-01,4C000000*,-702.6,977.533,90,32.0,44.9,0.410,741.1,2.1,1.050*
2018-06-12 01:19:00,-3.122E-01,4C000000*,-702.6,977.938,91,32.0,45.1,0.411,741.4,2.1,1.050*
2018-06-12 01:20:00,-2.880E-01,4C000000*,-702.6,975.512,90,32.1,44.9,0.411,741.1,2.1,1.050*
2018-06-12 01:21:00,-4.172E-01,4C000000*,-702.6,976.320,89,32.1,45.2,0.411,741.4,2.1,1.050*
2018-06-12 01:22:00,-3.872E-01,4C000000*,-702.6,976.320,90,32.0,45.1,0.410,741.1,2.1,1.050*
2018-06-12 01:23:00,-3.228E-01,4C000000*,-702.6,976.725,91,32.0,45.0,0.411,741.1,2.1,1.050*
2018-06-12 01:24:00,-2.679E-01,4C000000*,-702.6,977.938,91,32.0,45.0,0.411,741.1,2.1,1.050*
2018-06-12 01:25:00,-2.544E-01,4C000000*,-702.3,976.725,90,32.0,44.8,0.410,741.1,2.1,1.050*
2018-06-12 01:26:00,-2.035E-01,4C000000*,-702.3,977.938,90,32.1,45.2,0.410,741.1,2.1,1.050*
2018-06-12 01:27:00,-2.626E-01,4C000000*,-702.3,979.959,90,32.0,44.9,0.410,741.1,2.1,1.050*
2018-06-12 01:28:00,-3.566E-01,4C000000*,-702.6,977.938,91,32.1,45.0,0.411,741.4,2.1,1.050*
2018-06-12 01:29:00,-3.454E-01,4C000000*,-702.6,979.959,90,32.1,45.1,0.410,740.8,2.1,1.050*
2018-06-12 01:30:00,-2.594E-01,4C000000*,-702.6,980.363,89,32.1,44.8,0.410,741.1,2.1,1.050*
2018-06-12 01:31:00,-2.941E-01,4C000000*,-702.6,979.150,90,32.1,45.2,0.411,741.1,2.1,1.050*
2018-06-12 01:32:00,-3.069E-01,4C000000*,-702.6,978.342,89,32.1,45.0,0.410,741.1,2.1,1.050*
2018-06-12 01:33:00,-2.322E-01,4C000000*,-702.6,977.938,90,32.1,44.9,0.410,741.1,2.1,1.050*
2018-06-12 01:34:00,-2.296E-01,4C000000*,-702.3,977.938,90,32.1,45.3,0.410,740.8,2.1,1.050*
2018-06-12 01:35:00,-2.324E-01,4C000000*,-702.6,977.129,91,32.0,44.9,0.410,740.8,2.1,1.050*
2018-06-12 01:36:00,-2.674E-01,4C000000*,-702.6,976.725,91,32.1,45.0,0.410,741.1,2.1,1.050*
2018-06-12 01:37:00,-3.090E-01,4C000000*,-702.6,977.938,89,32.1,45.0,0.410,740.8,2.1,1.050*
2018-06-12 01:38:00,-2.493E-01,4C000000*,-702.6,977.938,89,32.1,44.9,0.410,741.1,2.1,1.050*
2018-06-12 01:39:00,-2.831E-01,4C000000*,-702.6,977.533,91,32.2,45.2,0.410,741.1,2.1,1.050*
2018-06-12 01:40:00,-2.239E-01,4C000000*,-702.3,977.938,90,32.1,44.8,0.410,741.1,2.1,1.050*
2018-06-12 01:41:00,-3.575E-01,4C000000*,-702.6,979.150,89,32.1,45.2,0.410,741.1,2.1,1.050*
2018-06-12 01:42:00,-3.202E-01,4C000000*,-702.6,977.938,89,32.1,44.9,0.410,741.1,2.1,1.050*
2018-06-12 01:43:00,-2.974E-01,4C000000*,-702.6,977.533,89,32.2,45.1,0.411,741.1,2.1,1.050*
2018-06-12 01:44:00,-3.003E-01,4C000000*,-702.6,977.533,90,32.1,45.0,0.410,741.1,2.1,1.050*
2018-06-12 01:45:00,-2.167E-01,4C000000*,-702.6,977.129,89,32.1,44.9,0.411,741.1,2.1,1.050*
2018-06-12 01:46:00,-2.369E-01,4C000000*,-702.6,977.938,90,32.2,45.2,0.410,741.1,2.1,1.050*
2018-06-12 01:47:00,-3.063E-01,4C000000*,-702.6,978.746,88,32.1,44.9,0.411,740.8,2.1,1.050*
2018-06-12 01:48:00,-2.544E-01,4C000000*,-702.6,977.533,89,32.2,45.1,0.410,740.8,2.1,1.050*
2018-06-12 01:49:00,-2.407E-01,4C000000*,-702.6,979.959,89,32.2,44.9,0.411,741.1,2.1,1.050*
2018-06-12 01:50:00,-2.332E-01,4C000000*,-702.6,978.342,89,32.2,45.1,0.410,741.1,2.1,1.050*
2018-06-12 01:51:00,-2.513E-01,4C000000*,-702.6,978.746,88,32.2,45.1,0.410,741.1,2.1,1.050*
2018-06-12 01:52:00,-3.267E-01,4C000000*,-702.3,977.938,89,32.2,44.9,0.410,741.1,2.1,1.050*
2018-06-12 01:53:00,-2.903E-01,4C000000*,-702.6,978.746,91,32.2,45.1,0.411,741.1,2.1,1.050*
2018-06-12 01:54:00,-1.507E-01,4C000000*,-702.3,977.938,91,32.2,44.8,0.411,741.1,2.1,1.050*
2018-06-12 01:55:00,-2.796E-01,4C000000*,-702.6,977.533,90,32.2,45.1,0.410,740.8,2.1,1.050*
2018-06-12 01:56:00,-3.431E-01,4C000000*,-703.0,977.129,89,32.1,44.9,0.410,740.8,2.1,1.050*
2018-06-12 01:57:00,-2.615E-01,4C000000*,-702.6,977.533,91,32.2,45.1,0.410,741.1,2.1,1.050*
2018-06-12 01:58:00,-2.749E-01,4C000000*,-702.6,978.342,90,32.2,45.0,0.411,741.1,2.1,1.050*
2018-06-12 01:59:00,-3.215E-01,4C000000*,-702.6,977.129,90,32.2,45.0,0.410,741.1,2.1,1.050*
2018-06-12 02:00:00,-2.633E-01,4C000000*,-702.6,975.916,89,32.2,45.0,0.410,741.1,2.1,1.050*
2018-06-12 02:01:00,-2.673E-01,4C000000*,-702.3,977.129,90,32.2,44.9,0.411,741.1,2.1,1.050*
2018-06-12 02:02:00,-2.751E-01,4C000000*,-702.6,976.725,91,32.2,45.2,0.411,741.1,2.1,1.050*
2018-06-12 02:03:00,-2.982E-01,4C000000*,-702.6,977.938,90,32.2,44.8,0.410,741.1,2.1,1.050*
2018-06-12 02:04:00,-2.642E-01,4C000000*,-702.3,978.342,90,32.2,45.2,0.410,741.1,2.1,1.050*
2018-06-12 02:05:00,-2.468E-01,4C000000*,-702.6,976.320,90,32.2,44.9,0.411,741.1,2.1,1.050*
2018-06-12 02:06:00,-2.417E-01,4C000000*,-702.6,977.129,89,32.2,45.0,0.410,741.1,2.1,1.050*
2018-06-12 02:07:00,-3.181E-01,4C000000*,-702.3,977.129,91,32.2,45.1,0.411,741.1,2.1,1.050*
2018-06-12 02:08:00,-3.243E-01,4C000000*,-702.6,977.129,89,32.2,44.8,0.410,741.1,2.1,1.050*
2018-06-12 02:09:00,-2.779E-01,4C000000*,-702.6,976.320,90,32.2,45.0,0.410,741.1,2.1,1.050*
2018-06-12 02:10:00,-3.429E-01,4C000000*,-702.6,977.129,89,32.2,45.1,0.411,741.1,2.1,1.050*
2018-06-12 02:11:00,-2.700E-01,4C000000*,-702.3,977.129,91,32.2,44.8,0.411,741.1,2.1,1.050*
2018-06-12 02:12:00,-2.730E-01,4C000000*,-702.3,977.938,90,32.2,45.2,0.410,740.8,2.1,1.050*
2018-06-12 02:13:00,-2.553E-01,4C000000*,-703.0,975.916,90,32.3,45.0,0.411,740.8,2.1,1.050*
2018-06-12 02:14:00,-2.811E-01,4C000000*,-702.6,976.320,89,32.3,44.9,0.410,741.1,2.1,1.050*
2018-06-12 02:15:00,-2.779E-01,4C000000*,-702.6,977.938,90,32.2,45.3,0.410,741.1,2.1,1.050*
2018-06-12 02:16:00,-3.223E-01,4C000000*,-702.6,977.129,89,32.3,45.0,0.410,741.1,2.1,1.050*
2018-06-12 02:17:00,-2.377E-01,4C000000*,-702.3,976.725,90,32.2,44.9,0.410,741.1,2.1,1.050*
2018-06-12 02:18:00,-2.540E-01,4C000000*,-702.3,975.916,90,32.2,45.1,0.410,741.1,2.1,1.050*
2018-06-12 02:19:00,-3.281E-01,4C000000*,-703.0,975.512,91,32.3,44.9,0.410,741.1,2.1,1.050*
2018-06-12 02:20:00,-2.383E-01,4C000000*,-702.6,975.108,91,32.3,45.1,0.411,741.1,2.1,1.050*
2018-06-12 02:21:00,-2.640E-01,4C000000*,-703.0,975.512,90,32.2,44.8,0.410,741.1,2.1,1.050*
2018-06-12 02:22:00,-2.485E-01,4C000000*,-702.6,975.916,87,32.3,45.2,0.411,741.1,2.1,1.050*
2018-06-12 02:23:00,-2.958E-01,4C000000*,-702.6,977.533,90,32.2,45.0,0.410,741.1,2.1,1.050*
2018-06-12 02:24:00,-2.844E-01,4C000000*,-702.6,976.320,90,32.2,45.0,0.410,741.4,2.1,1.050*
2018-06-12 02:25:00,-2.518E-01,4C000000*,-702.6,976.320,89,32.2,45.1,0.411,741.1,2.1,1.050*
2018-06-12 02:26:00,-3.172E-01,4C000000*,-702.6,977.938,91,32.3,44.9,0.411,741.1,2.1,1.050*
2018-06-12 02:27:00,-2.538E-01,4C000000*,-702.6,977.533,89,32.3,45.2,0.410,741.1,2.1,1.050*
2018-06-12 02:28:00,-2.473E-01,4C000000*,-703.0,978.342,91,32.3,44.9,0.411,741.1,2.1,1.050*
2018-06-12 02:29:00,-2.147E-01,4C000000*,-702.6,979.150,91,32.3,45.2,0.410,741.1,2.1,1.050*
2018-06-12 02:30:00,-2.534E-01,4C000000*,-702.3,977.533,90,32.3,44.9,0.410,741.1,2.1,1.050*
2018-06-12 02:31:00,-2.217E-01,4C000000*,-702.3,979.150,90,32.3,45.0,0.411,741.1,2.1,1.050*
2018-06-12 02:32:00,-3.508E-01,4C000000*,-702.6,978.746,89,32.3,45.0,0.411,741.1,2.1,1.050*
2018-06-12 02:33:00,-2.620E-01,4C000000*,-702.6,977.938,90,32.3,44.9,0.410,741.1,2.1,1.050*
2018-06-12 02:34:00,-2.697E-01,4C000000*,-702.6,979.555,90,32.3,45.2,0.410,741.1,2.1,1.050*
2018-06-12 02:35:00,-3.367E-01,4C000000*,-702.6,979.150,90,32.3,44.8,0.410,741.4,2.1,1.050*
2018-06-12 02:36:00,-3.146E-01,4C000000*,-702.6,978.746,89,32.3,45.2,0.411,741.1,2.1,1.050*
2018-06-12 02:37:00,-2.804E-01,4C000000*,-703.0,979.150,89,32.3,44.9,0.411,741.1,2.1,1.050*
2018-06-12 02:38:00,-2.360E-01,4C000000*,-702.3,978.342,90,32.4,45.0,0.411,741.1,2.1,1.050*
2018-06-12 02:39:00,-2.697E-01,4C000000*,-702.6,980.768,90,32.4,45.1,0.411,741.1,2.1,1.050*
2018-06-12 02:40:00,-3.161E-01,4C000000*,-702.6,977.533,90,32.4,44.9,0.411,741.1,2.1,1.050*
2018-06-12 02:41:00,-3.708E-01,4C000000*,-702.6,979.555,90,32.3,45.2,0.411,740.8,2.1,1.050*
2018-06-12 02:42:00,-3.141E-01,4C000000*,-702.3,977.938,90,32.4,44.9,0.410,741.1,2.1,1.050*
2018-06-12 02:43:00,-3.219E-01,4C000000*,-702.6,978.746,90,32.3,45.1,0.411,741.1,2.1,1.050*
2018-06-12 02:44:00,-2.709E-01,4C000000*,-702.6,979.150,90,32.4,44.8,0.411,740.8,2.1,1.050*
2018-06-12 02:45:00,-2.718E-01,4C000000*,-702.6,977.938,90,32.4,45.1,0.411,741.1,2.1,1.050*
2018-06-12 02:46:00,-2.593E-01,4C000000*,-703.0,977.129,89,32.4,45.1,0.411,741.1,2.1,1.050*
2018-06-12 02:47:00,-2.495E-01,4C000000*,-702.6,979.555,91,32.4,44.9,0.411,741.1,2.1,1.050*
2018-06-12 02:48:00,-2.910E-01,4C000000*,-702.6,979.555,90,32.4,45.1,0.411,741.1,2.1,1.050*
2018-06-12 02:49:00,-2.146E-01,4C000000*,-702.6,979.959,92,32.3,44.8,0.411,741.1,2.1,1.050*
2018-06-12 02:50:00,-2.626E-01,4C000000*,-702.3,978.342,90,32.4,45.2,0.411,740.8,2.1,1.050*
2018-06-12 02:51:00,-2.130E-01,4C000000*,-702.6,978.342,90,32.4,44.9,0.411,740.8,2.1,1.050*
2018-06-12 02:52:00,-2.590E-01,4C000000*,-702.3,977.129,90,32.4,45.2,0.411,741.1,2.1,1.050*
2018-06-12 02:53:00,-2.819E-01,4C000000*,-702.3,975.916,91,32.4,45.0,0.410,741.1,2.1,1.050*
2018-06-12 02:54:00,-2.939E-01,4C000000*,-702.3,977.129,89,32.4,45.0,0.411,741.1,2.1,1.050*
2018-06-12 02:55:00,-3.179E-01,4C000000*,-702.6,978.746,90,32.4,45.1,0.410,740.8,2.1,1.050*
2018-06-12 02:56:00,-2.667E-01,4C000000*,-702.6,978.342,89,32.4,44.9,0.411,741.1,2.1,1.050*
2018-06-12 02:57:00,-3.939E-01,4C000000*,-702.6,977.938,91,32.4,45.1,0.410,740.8,2.1,1.050*
2018-06-12 02:58:00,-2.453E-01,4C000000*,-703.0,977.129,89,32.4,44.8,0.410,741.1,2.1,1.050*
2018-06-12 02:59:00,-2.625E-01,4C000000*,-702.6,978.746,90,32.4,45.2,0.411,741.1,2.1,1.050*
2018-06-12 03:00:00,-2.569E-01,4C000000*,-702.6,977.533,91,32.4,45.0,0.410,741.4,2.1,1.050*
2018-06-12 03:01:00,-2.682E-01,4C000000*,-702.6,977.129,91,32.4,45.0,0.410,741.1,2.1,1.050*
2018-06-12 03:02:00,-2.352E-01,4C000000*,-702.6,976.320,90,32.4,45.1,0.410,741.1,2.1,1.050*
2018-06-12 03:03:00,-3.222E-01,4C000000*,-702.3,976.725,89,32.4,44.9,0.410,741.1,2.1,1.050*
2018-06-12 03:04:00,-2.168E-01,4C000000*,-702.3,977.129,89,32.4,45.2,0.410,741.1,2.1,1.050*
2018-06-12 03:05:00,-2.927E-01,4C000000*,-702.6,977.938,91,32.4,44.9,0.410,741.1,2.1,1.050*
2018-06-12 03:06:00,-1.533E-01,4C000000*,-702.6,975.512,87,32.5,45.2,0.410,741.1,2.1,1.050*
2018-06-12 03:07:00,-2.768E-01,4C000000*,-702.6,977.129,89,32.4,45.0,0.411,741.1,2.1,1.050*
2018-06-12 03:08:00,-2.970E-01,4C000000*,-702.6,976.725,88,32.5,45.1,0.411,741.1,2.1,1.050*
2018-06-12 03:09:00,-2.801E-01,4C000000*,-702.6,976.320,91,32.4,45.1,0.411,741.1,2.1,1.050*
2018-06-12 03:10:00,-2.190E-01,4C000000*,-702.6,976.725,90,32.4,44.9,0.411,741.1,2.1,1.050*
2018-06-12 03:11:00,-2.662E-01,4C000000*,-703.0,976.320,91,32.5,45.1,0.411,741.1,2.1,1.050*
2018-06-12 03:12:00,-1.320E-01,4C000000*,-702.3,976.725,89,32.4,44.8,0.411,741.1,2.1,1.050*
2018-06-12 03:13:00,-3.147E-01,4C000000*,-702.6,975.916,90,32.5,45.2,0.410,740.8,2.1,1.050*
2018-06-12 03:14:00,-2.666E-01,4C000000*,-702.6,976.725,90,32.4,44.9,0.411,741.1,2.1,1.050*
2018-06-12 03:15:00,-2.819E-01,4C000000*,-702.3,976.320,89,32.4,45.1,0.411,741.1,2.1,1.050*
2018-06-12 03:16:00,-3.070E-01,4C000000*,-702.3,975.512,90,32.5,45.1,0.411,740.8,2.1,1.050*
2018-06-12 03:17:00,-2.685E-01,4C000000*,-702.6,976.725,89,32.5,45.0,0.411,741.1,2.1,1.050*
2018-06-12 03:18:00,-3.132E-01,4C000000*,-702.6,975.512,90,32.5,45.1,0.411,741.1,2.1,1.050*
2018-06-12 03:19:00,-2.193E-01,4C000000*,-702.6,976.320,90,32.5,44.8,0.410,741.1,2.1,1.050*
2018-06-12 03:20:00,-3.550E-01,4C000000*,-702.6,976.320,88,32.5,45.1,0.411,741.1,2.1,1.050*
2018-06-12 03:21:00,-2.346E-01,4C000000*,-702.6,976.320,91,32.5,44.9,0.411,741.1,2.1,1.050*
2018-06-12 03:22:00,-2.522E-01,4C000000*,-703.0,977.129,89,32.5,45.1,0.410,741.1,2.1,1.050*
2018-06-12 03:23:00,-2.688E-01,4C000000*,-702.3,977.533,91,32.5,45.0,0.410,741.1,2.1,1.050*
2018-06-12 03:24:00,-2.701E-01,4C000000*,-702.6,978.342,90,32.5,45.0,0.411,741.1,2.1,1.050*
2018-06-12 03:25:00,-2.077E-01,4C000000*,-702.6,976.725,87,32.5,45.1,0.411,741.1,2.1,1.050*
2018-06-12 03:26:00,-2.473E-01,4C000000*,-702.3,976.320,89,32.5,44.9,0.410,741.1,2.1,1.050*
2018-06-12 03:27:00,-2.543E-01,4C000000*,-702.6,976.725,89,32.5,45.2,0.411,741.1,2.1,1.050*
2018-06-12 03:28:00,-3.060E-01,4C000000*,-702.6,977.533,90,32.5,44.8,0.411,741.1,2.1,1.050*
2018-06-12 03:29:00,-2.379E-01,4C000000*,-702.6,975.916,90,32.5,45.2,0.411,741.1,2.1,1.050*
2018-06-12 03:30:00,-2.984E-01,4C000000*,-703.0,976.725,89,32.5,45.0,0.411,741.1,2.1,1.050*
2018-06-12 03:31:00,-3.092E-01,4C000000*,-702.3,974.703,90,32.5,45.0,0.411,741.1,2.1,1.050*
2018-06-12 03:32:00,-3.694E-01,4C000000*,-702.3,975.512,90,32.5,45.1,0.410,741.1,2.1,1.050*
2018-06-12 03:33:00,-2.209E-01,4C000000*,-702.3,975.916,89,32.5,44.9,0.411,741.4,2.1,1.050*
2018-06-12 03:34:00,-1.967E-01,4C000000*,-702.6,976.725,90,32.5,45.2,0.410,741.1,2.1,1.050*
2018-06-12 03:35:00,-3.149E-01,4C000000*,-702.6,975.512,89,32.5,44.8,0.410,741.1,2.1,1.050*
2018-06-12 03:36:00,-3.029E-01,4C000000*,-702.6,975.916,90,32.5,45.2,0.411,741.1,2.1,1.050*
2018-06-12 03:37:00,-2.869E-01,4C000000*,-702.6,975.108,89,32.5,44.9,0.410,741.1,2.1,1.050*
2018-06-12 03:38:00,-2.419E-01,4C000000*,-703.0,977.533,89,32.6,45.0,0.411,741.1,2.1,1.050*
2018-06-12 03:39:00,-2.306E-01,4C000000*,-702.6,977.129,89,32.5,45.0,0.411,741.1,2.1,1.050*
2018-06-12 03:40:00,-3.066E-01,4C000000*,-702.6,975.916,87,32.6,44.9,0.411,741.1,2.1,1.050*
2018-06-12 03:41:00,-3.260E-01,4C000000*,-703.0,976.725,91,32.6,45.2,0.411,741.1,2.1,1.050*
2018-06-12 03:42:00,-3.977E-01,4C000000*,-702.3,977.533,87,32.6,44.8,0.411,741.1,2.1,1.050*
2018-06-12 03:43:00,-3.298E-01,4C000000*,-701.5,977.938,91,32.5,45.2,0.411,741.1,2.1,1.050*
2018-06-12 03:44:00,-2.171E-01,4C000000*,-703.0,977.938,89,32.6,44.9,0.410,741.1,2.1,1.050*
2018-06-12 03:45:00,-3.089E-01,4C000000*,-702.3,975.108,91,32.5,45.1,0.410,741.1,2.1,1.050*
2018-06-12 03:46:00,-3.098E-01,4C000000*,-702.6,976.320,90,32.6,45.0,0.411,741.1,2.1,1.050*
2018-06-12 03:47:00,-2.211E-01,4C000000*,-702.6,976.725,89,32.6,44.9,0.411,741.1,2.1,1.050*
2018-06-12 03:48:00,-2.298E-01,4C000000*,-702.6,978.342,90,32.6,45.2,0.411,741.1,2.1,1.050*
2018-06-12 03:49:00,-3.068E-01,4C000000*,-702.3,978.746,90,32.5,44.9,0.411,741.1,2.1,1.050*
2018-06-12 03:50:00,-2.531E-01,4C000000*,-702.6,978.342,91,32.6,45.1,0.411,741.1,2.1,1.050*
2018-06-12 03:51:00,-2.525E-01,4C000000*,-702.6,978.342,91,32.6,44.9,0.410,741.1,2.1,1.050*
2018-06-12 03:52:00,-2.717E-01,4C000000*,-702.6,977.533,91,32.6,45.1,0.411,741.4,2.1,1.050*
2018-06-12 03:53:00,-2.098E-01,4C000000*,-702.6,979.150,88,32.6,45.1,0.411,741.1,2.1,1.050*
2018-06-12 03:54:00,-2.576E-01,4C000000*,-702.3,978.342,89,32.6,44.9,0.410,741.4,2.1,1.050*
2018-06-12 03:55:00,-2.466E-01,4C000000*,-702.6,976.725,89,32.6,45.2,0.411,741.1,2.1,1.050*
2018-06-12 03:56:00,-2.736E-01,4C000000*,-702.6,977.938,89,32.6,44.9,0.411,741.4,2.1,1.050*
2018-06-12 03:57:00,-2.889E-01,4C000000*,-702.6,978.746,90,32.6,45.1,0.410,741.1,2.1,1.050*
2018-06-12 03:58:00,-3.095E-01,4C000000*,-702.3,977.129,89,32.6,44.9,0.411,741.4,2.1,1.050*
2018-06-12 03:59:00,-1.987E-01,4C000000*,-702.6,977.938,88,32.6,45.2,0.411,741.4,2.1,1.050*
2018-06-12 04:00:00,-2.990E-01,4C000000*,-702.6,977.129,89,32.6,45.1,0.411,741.1,2.1,1.050*
2018-06-12 04:01:00,-2.888E-01,4C000000*,-702.3,978.746,90,32.6,45.0,0.411,741.4,2.1,1.050*
2018-06-12 04:02:00,-2.601E-01,4C000000*,-702.6,977.938,89,32.6,45.1,0.411,741.1,2.1,1.050*
2018-06-12 04:03:00,-3.731E-01,4C000000*,-702.6,977.938,90,32.6,44.9,0.411,741.1,2.1,1.050*
2018-06-12 04:04:00,-3.012E-01,4C000000*,-702.6,978.342,89,32.7,45.2,0.411,741.4,2.1,1.050*
2018-06-12 04:05:00,-3.235E-01,4C000000*,-702.3,977.938,90,32.7,44.9,0.411,741.1,2.1,1.050*
2018-06-12 04:06:00,-2.379E-01,4C000000*,-702.3,978.342,88,32.7,45.2,0.411,741.1,2.1,1.050*
2018-06-12 04:07:00,-2.759E-01,4C000000*,-702.6,976.320,90,32.6,45.0,0.411,741.1,2.1,1.050*
2018-06-12 04:08:00,-2.414E-01,4C000000*,-702.6,978.342,91,32.6,45.0,0.411,741.4,2.1,1.050*
2018-06-12 04:09:00,-3.740E-01,4C000000*,-702.6,977.533,87,32.6,45.0,0.411,741.1,2.1,1.050*
2018-06-12 04:10:00,-3.699E-01,4C000000*,-702.6,977.938,88,32.6,44.9,0.411,741.4,2.1,1.050*
2018-06-12 04:11:00,-3.091E-01,4C000000*,-702.3,977.938,91,32.6,45.2,0.411,741.4,2.1,1.050*
2018-06-12 04:12:00,-2.737E-01,4C000000*,-702.6,974.299,91,32.6,44.8,0.411,741.1,2.1,1.050*
2018-06-12 04:13:00,-2.534E-01,4C000000*,-702.6,976.725,91,32.7,45.2,0.411,741.1,2.1,1.050*
2018-06-12 04:14:00,-2.988E-01,4C000000*,-702.6,977.129,91,32.6,44.9,0.410,741.1,2.1,1.050*